| time (UTC) | temp F | wind direction | speed knots | gust knots | rain 1hr in | rain 24hr in | rain mn in | humidity % | barometer mb |
| 20260831103305 | 64 | 206 | 0.9 | 2.6 | 0.00 | 0.02 | 0.00 | 63 | 1013.5 |
| 20260831101804 | 62 | 218 | 0.9 | 2.6 | 0.00 | 0.02 | 0.00 | 69 | 1013.5 |
| 20260831101306 | 62 | 220 | 0.9 | 2.6 | 0.00 | 0.02 | 0.00 | 69 | 1013.5 |
| 20260831100805 | 63 | 202 | 1.7 | 2.6 | 0.00 | 0.02 | 0.00 | 69 | 1013.5 |
| 20260831100305 | 62 | 199 | 0.9 | 4.3 | 0.00 | 0.02 | 0.00 | 69 | 1013.5 |
| 20260831094805 | 62 | 208 | 0.0 | 0.9 | 0.00 | 0.02 | 0.00 | 72 | 1013.5 |
| 20260831093305 | 63 | 198 | 0.9 | 2.6 | 0.00 | 0.02 | 0.00 | 71 | 1013.5 |
| 20260831092804 | 63 | 198 | 0.9 | 1.7 | 0.00 | 0.02 | 0.00 | 71 | 1013.5 |
| 20260831092306 | 62 | 198 | 0.9 | 1.7 | 0.00 | 0.02 | 0.00 | 70 | 1013.5 |
| 20260831090304 | 63 | 146 | 0.9 | 1.7 | 0.00 | 0.02 | 0.00 | 69 | 1013.5 |
| 20260831085306 | 63 | 146 | 0.0 | 0.9 | 0.00 | 0.02 | 0.00 | 68 | 1013.5 |
| 20260831084304 | 63 | 146 | 0.0 | 1.7 | 0.00 | 0.02 | 0.00 | 67 | 1013.5 |
| 20260831083804 | 63 | 146 | 0.0 | 1.7 | 0.00 | 0.02 | 0.00 | 67 | 1013.5 |
| 20260831082306 | 62 | 146 | 0.0 | 0.0 | 0.00 | 0.02 | 0.00 | 69 | 1013.5 |
| 20260831081305 | 63 | 146 | 0.0 | 1.7 | 0.00 | 0.02 | 0.00 | 65 | 1013.5 |
| 20260831080305 | 63 | 146 | 0.9 | 1.7 | 0.00 | 0.02 | 0.00 | 64 | 1013.5 |
| 20260831073305 | 64 | 221 | 0.9 | 1.7 | 0.00 | 0.02 | 0.00 | 61 | 1013.5 |
| 20260831072805 | 64 | 191 | 0.9 | 0.9 | 0.00 | 0.02 | 0.00 | 61 | 1013.5 |
| 20260831071805 | 65 | 191 | 0.0 | 0.9 | 0.00 | 0.02 | 0.00 | 58 | 1013.5 |
| 20260831071306 | 65 | 191 | 0.9 | 1.7 | 0.00 | 0.02 | 0.00 | 58 | 1013.5 |
| 20260831070804 | 65 | 191 | 0.9 | 1.7 | 0.00 | 0.02 | 0.00 | 57 | 1013.5 |
| 20260831070305 | 65 | 191 | 0.9 | 1.7 | 0.00 | 0.02 | 0.00 | 56 | 1013.5 |
| 20260831065805 | 65 | 311 | 0.9 | 1.7 | 0.00 | 0.02 | 0.00 | 56 | 1013.5 |
| 20260831064305 | 66 | 263 | 0.9 | 2.6 | 0.00 | 0.02 | 0.00 | 56 | 1013.5 |
| 20260831062306 | 68 | 275 | 0.9 | 2.6 | 0.00 | 0.02 | 0.00 | 51 | 1013.5 |
| 20260831061805 | 69 | 192 | 0.9 | 2.6 | 0.00 | 0.02 | 0.00 | 49 | 1013.5 |
| 20260831054805 | 71 | 238 | 2.6 | 6.1 | 0.00 | 0.02 | 0.02 | 45 | 1013.5 |
| 20260831054304 | 71 | 249 | 4.3 | 6.1 | 0.00 | 0.02 | 0.02 | 45 | 1013.5 |
| 20260831051305 | 70 | 277 | 5.2 | 8.7 | 0.00 | 0.02 | 0.02 | 52 | 1013.5 |
| 20260831045804 | 69 | 297 | 3.5 | 7.0 | 0.00 | 0.02 | 0.02 | 66 | 1013.5 |
| 20260831045306 | 68 | 300 | 2.6 | 8.7 | 0.00 | 0.02 | 0.02 | 66 | 1013.5 |
| 20260831044805 | 68 | 252 | 4.3 | 7.0 | 0.00 | 0.02 | 0.02 | 66 | 1013.5 |
| 20260831044305 | 67 | 274 | 2.6 | 6.1 | 0.00 | 0.02 | 0.02 | 67 | 1013.5 |
| 20260831043804 | 67 | 317 | 2.6 | 4.3 | 0.00 | 0.02 | 0.02 | 69 | 1013.5 |
| 20260831043305 | 67 | 216 | 0.9 | 1.7 | 0.00 | 0.02 | 0.02 | 68 | 1013.5 |
| 20260831042805 | 67 | 216 | 0.0 | 1.7 | 0.00 | 0.02 | 0.02 | 68 | 1013.5 |
| 20260831042307 | 68 | 216 | 0.9 | 1.7 | 0.00 | 0.02 | 0.02 | 67 | 1013.5 |
| 20260831041805 | 68 | 216 | 0.9 | 1.7 | 0.00 | 0.02 | 0.02 | 66 | 1013.5 |
| 20260831040805 | 69 | 203 | 1.7 | 4.3 | 0.00 | 0.02 | 0.02 | 64 | 1013.5 |
| 20260831040305 | 69 | 173 | 2.6 | 5.2 | 0.00 | 0.02 | 0.02 | 64 | 1013.5 |
| 20260831035804 | 69 | 181 | 2.6 | 6.1 | 0.00 | 0.02 | 0.02 | 64 | 1013.5 |
| 20260831034305 | 69 | 184 | 3.5 | 7.0 | 0.00 | 0.02 | 0.02 | 64 | 1013.5 |
| 20260831033804 | 68 | 185 | 4.3 | 6.1 | 0.00 | 0.02 | 0.02 | 64 | 1013.5 |
| 20260831033305 | 67 | 184 | 2.6 | 4.3 | 0.00 | 0.02 | 0.02 | 65 | 1013.5 |
| 20260831032306 | 66 | 213 | 1.7 | 2.6 | 0.00 | 0.02 | 0.02 | 66 | 1013.5 |
| 20260831030805 | 66 | 213 | 0.9 | 1.7 | 0.00 | 0.02 | 0.02 | 65 | 1013.5 |
| 20260831025805 | 67 | 249 | 1.7 | 2.6 | 0.00 | 0.02 | 0.02 | 63 | 1013.5 |
| 20260831025306 | 68 | 200 | 0.9 | 4.3 | 0.00 | 0.02 | 0.02 | 61 | 1013.5 |
| 20260831024305 | 68 | 210 | 1.7 | 4.3 | 0.00 | 0.02 | 0.02 | 61 | 1013.5 |
| 20260831022805 | 67 | 222 | 1.7 | 2.6 | 0.00 | 0.02 | 0.02 | 62 | 1013.5 |
| 20260831022306 | 67 | 212 | 1.7 | 2.6 | 0.00 | 0.02 | 0.02 | 64 | 1013.5 |
| 20260831021804 | 67 | 252 | 0.9 | 2.6 | 0.00 | 0.02 | 0.02 | 64 | 1011.6 |
| 20260831020804 | 67 | 179 | 0.9 | 2.6 | 0.00 | 0.02 | 0.02 | 64 | 1011.6 |
| 20260831020305 | 67 | 179 | 0.9 | 1.7 | 0.00 | 0.02 | 0.02 | 64 | 1011.6 |
| 20260831015805 | 67 | 179 | 0.9 | 1.7 | 0.00 | 0.02 | 0.02 | 64 | 1011.6 |
| 20260831014804 | 68 | 179 | 0.0 | 1.7 | 0.00 | 0.02 | 0.02 | 61 | 1011.6 |
| 20260831013305 | 69 | 144 | 0.9 | 1.7 | 0.00 | 0.02 | 0.02 | 61 | 1011.6 |
| 20260831012306 | 70 | 144 | 1.7 | 2.6 | 0.00 | 0.02 | 0.02 | 59 | 1011.6 |
| 20260831011305 | 71 | 160 | 2.6 | 4.3 | 0.00 | 0.02 | 0.02 | 57 | 1011.6 |
| 20260831010804 | 71 | 178 | 0.9 | 4.3 | 0.00 | 0.02 | 0.02 | 58 | 1011.6 |
| 20260831010306 | 71 | 178 | 3.5 | 5.2 | 0.00 | 0.02 | 0.02 | 57 | 1011.6 |
| 20260831005306 | 72 | 165 | 4.3 | 6.1 | 0.00 | 0.02 | 0.02 | 56 | 1011.6 |
| 20260831004804 | 72 | 183 | 3.5 | 7.0 | 0.00 | 0.02 | 0.02 | 54 | 1011.6 |
| 20260831003805 | 73 | 155 | 2.6 | 6.1 | 0.00 | 0.02 | 0.02 | 52 | 1011.6 |
| 20260831003305 | 73 | 173 | 4.3 | 8.7 | 0.00 | 0.02 | 0.02 | 51 | 1011.6 |
| 20260831002805 | 73 | 189 | 3.5 | 7.0 | 0.00 | 0.02 | 0.02 | 50 | 1011.6 |
| 20260831000305 | 75 | 153 | 1.7 | 5.2 | 0.00 | 0.02 | 0.02 | 47 | 1011.6 |
| 20260830234804 | 74 | 146 | 4.3 | 6.1 | 0.00 | 0.02 | 0.02 | 49 | 1011.6 |
| 20260830234305 | 74 | 125 | 1.7 | 5.2 | 0.00 | 0.02 | 0.02 | 48 | 1011.6 |
| 20260830233805 | 74 | 140 | 1.7 | 4.3 | 0.00 | 0.02 | 0.02 | 49 | 1011.6 |
| 20260830233305 | 75 | 140 | 0.9 | 1.7 | 0.00 | 0.02 | 0.02 | 48 | 1011.6 |
| 20260830225306 | 74 | 230 | 0.9 | 1.7 | 0.00 | 0.02 | 0.02 | 48 | 1011.6 |
| 20260830224304 | 72 | 230 | 0.9 | 1.7 | 0.00 | 0.02 | 0.02 | 49 | 1011.6 |
| 20260830223305 | 72 | 288 | 0.9 | 2.6 | 0.00 | 0.02 | 0.02 | 49 | 1011.6 |
| 20260830222804 | 71 | 194 | 1.7 | 2.6 | 0.00 | 0.02 | 0.02 | 51 | 1011.6 |
| 20260830222306 | 71 | 223 | 0.9 | 2.6 | 0.00 | 0.02 | 0.02 | 50 | 1011.6 |
| 20260830220805 | 70 | 306 | 5.2 | 12.2 | 0.00 | 0.02 | 0.02 | 53 | 1011.6 |
| 20260830215804 | 71 | 300 | 7.8 | 13.9 | 0.00 | 0.02 | 0.02 | 52 | 1011.6 |
| 20260830214304 | 70 | 287 | 8.7 | 19.1 | 0.00 | 0.02 | 0.02 | 51 | 1011.6 |
| 20260830213304 | 69 | 308 | 7.0 | 13.0 | 0.00 | 0.02 | 0.02 | 56 | 1011.6 |
| 20260830212306 | 68 | 298 | 7.8 | 15.6 | 0.02 | 0.02 | 0.02 | 60 | 1011.6 |
| 20260830210304 | 72 | 280 | 8.7 | 18.2 | 0.02 | 0.02 | 0.02 | 55 | 1011.6 |
| 20260830205805 | 72 | 293 | 9.6 | 20.0 | 0.02 | 0.02 | 0.02 | 60 | 1011.6 |
| 20260830204804 | 72 | 305 | 7.8 | 25.2 | 0.02 | 0.02 | 0.02 | 65 | 1011.6 |
| 20260830203304 | 76 | 288 | 11.3 | 21.7 | 0.02 | 0.02 | 0.02 | 42 | 1011.6 |
| 20260830202306 | 78 | 337 | 8.7 | 19.1 | 0.00 | 0.00 | 0.00 | 42 | 1011.6 |
| 20260830201304 | 78 | 339 | 10.4 | 19.1 | 0.00 | 0.00 | 0.00 | 42 | 1011.6 |
| 20260830200304 | 78 | 347 | 8.7 | 14.8 | 0.00 | 0.00 | 0.00 | 42 | 1011.6 |
| 20260830195804 | 81 | 331 | 9.6 | 18.2 | 0.00 | 0.00 | 0.00 | 36 | 1011.6 |
| 20260830195305 | 82 | 12 | 3.5 | 5.2 | 0.00 | 0.00 | 0.00 | 33 | 1011.6 |
| 20260830194305 | 83 | 156 | 4.3 | 6.1 | 0.00 | 0.00 | 0.00 | 31 | 1011.6 |
| 20260830192305 | 83 | 150 | 5.2 | 12.2 | 0.00 | 0.00 | 0.00 | 33 | 1011.6 |
| 20260830190304 | 82 | 64 | 5.2 | 7.0 | 0.00 | 0.00 | 0.00 | 34 | 1012.4 |
| 20260830185306 | 83 | 133 | 2.6 | 4.3 | 0.00 | 0.00 | 0.00 | 34 | 1012.4 |
| 20260830184804 | 83 | 169 | 4.3 | 7.0 | 0.00 | 0.00 | 0.00 | 33 | 1012.4 |
| 20260830184305 | 82 | 105 | 0.9 | 2.6 | 0.00 | 0.00 | 0.00 | 34 | 1012.4 |
| 20260830182306 | 82 | 69 | 2.6 | 6.1 | 0.00 | 0.00 | 0.00 | 34 | 1012.4 |
| 20260830181805 | 82 | 167 | 2.6 | 5.2 | 0.00 | 0.00 | 0.00 | 32 | 1012.4 |
| 20260830181304 | 83 | 186 | 0.9 | 5.2 | 0.00 | 0.00 | 0.00 | 33 | 1012.4 |
| 20260830175804 | 83 | 169 | 4.3 | 7.0 | 0.00 | 0.00 | 0.00 | 33 | 1012.4 |
| 20260830175306 | 83 | 153 | 2.6 | 5.2 | 0.00 | 0.00 | 0.00 | 33 | 1012.4 |
| 20260830172306 | 82 | 297 | 3.5 | 5.2 | 0.00 | 0.00 | 0.00 | 34 | 1012.4 |
| 20260830171804 | 81 | 288 | 1.7 | 5.2 | 0.00 | 0.00 | 0.00 | 36 | 1012.4 |
| 20260830171305 | 81 | 298 | 2.6 | 5.2 | 0.00 | 0.00 | 0.00 | 35 | 1012.4 |
| 20260830164305 | 80 | 281 | 4.3 | 7.0 | 0.00 | 0.00 | 0.00 | 36 | 1012.4 |
| 20260830163304 | 80 | 254 | 3.5 | 6.1 | 0.00 | 0.00 | 0.00 | 35 | 1012.4 |
| 20260830160804 | 78 | 271 | 0.9 | 1.7 | 0.00 | 0.00 | 0.00 | 44 | 1012.4 |
| 20260830160304 | 77 | 300 | 1.7 | 4.3 | 0.00 | 0.00 | 0.00 | 46 | 1012.4 |
| 20260830155805 | 76 | 327 | 2.6 | 5.2 | 0.00 | 0.00 | 0.00 | 45 | 1012.4 |
| 20260830150304 | 71 | 162 | 2.6 | 4.3 | 0.00 | 0.00 | 0.00 | 54 | 1012.4 |
| 20260830145804 | 70 | 163 | 1.7 | 2.6 | 0.00 | 0.00 | 0.00 | 55 | 1012.4 |
| 20260830145306 | 70 | 191 | 0.9 | 2.6 | 0.00 | 0.00 | 0.00 | 54 | 1012.4 |
| 20260830144804 | 70 | 186 | 3.5 | 5.2 | 0.00 | 0.00 | 0.00 | 55 | 1012.4 |
| 20260830144305 | 70 | 155 | 0.9 | 4.3 | 0.00 | 0.00 | 0.00 | 56 | 1012.4 |
| 20260830142805 | 68 | 198 | 0.9 | 1.7 | 0.00 | 0.00 | 0.00 | 56 | 1012.4 |
| 20260830142306 | 68 | 198 | 0.9 | 4.3 | 0.00 | 0.00 | 0.00 | 57 | 1012.4 |
| 20260830141805 | 68 | 221 | 1.7 | 4.3 | 0.00 | 0.00 | 0.00 | 58 | 1012.4 |
| 20260830141304 | 67 | 188 | 0.9 | 2.6 | 0.00 | 0.00 | 0.00 | 60 | 1012.4 |
| 20260830140804 | 67 | 212 | 2.6 | 4.3 | 0.00 | 0.00 | 0.00 | 62 | 1012.4 |
| 20260830135804 | 66 | 181 | 1.7 | 4.3 | 0.00 | 0.00 | 0.00 | 63 | 1012.4 |
| 20260830134804 | 66 | 146 | 0.9 | 4.3 | 0.00 | 0.00 | 0.00 | 63 | 1012.4 |
| 20260830134304 | 65 | 163 | 1.7 | 4.3 | 0.00 | 0.00 | 0.00 | 68 | 1012.4 |
| 20260830133304 | 63 | 193 | 0.9 | 1.7 | 0.00 | 0.00 | 0.00 | 70 | 1012.4 |
| 20260830132804 | 63 | 196 | 0.0 | 0.0 | 0.00 | 0.00 | 0.00 | 71 | 1012.4 |
| 20260830132306 | 62 | 196 | 0.0 | 0.0 | 0.00 | 0.00 | 0.00 | 71 | 1012.4 |
| 20260830131804 | 62 | 196 | 0.0 | 0.0 | 0.00 | 0.00 | 0.00 | 70 | 1012.4 |
| 20260830130305 | 61 | 196 | 0.0 | 0.0 | 0.00 | 0.00 | 0.00 | 70 | 1012.4 |
| 20260830125306 | 62 | 196 | 0.0 | 0.0 | 0.00 | 0.00 | 0.00 | 69 | 1012.4 |
| 20260830124804 | 61 | 196 | 0.0 | 1.7 | 0.00 | 0.00 | 0.00 | 69 | 1012.4 |
| 20260830123804 | 62 | 196 | 0.0 | 0.0 | 0.00 | 0.00 | 0.00 | 70 | 1012.4 |
| 20260830120804 | 61 | 284 | 0.9 | 1.7 | 0.00 | 0.00 | 0.00 | 70 | 1012.4 |
| 20260830120304 | 61 | 204 | 0.0 | 0.0 | 0.00 | 0.00 | 0.00 | 70 | 1012.4 |
| 20260830114305 | 63 | 204 | 0.0 | 2.6 | 0.00 | 0.00 | 0.00 | 67 | 1012.4 |
| 20260830113805 | 62 | 174 | 0.9 | 2.6 | 0.00 | 0.00 | 0.00 | 68 | 1012.4 |
| 20260830112804 | 62 | 166 | 0.9 | 1.7 | 0.00 | 0.00 | 0.00 | 69 | 1012.4 |
| 20260830112306 | 62 | 161 | 2.6 | 4.3 | 0.00 | 0.00 | 0.00 | 69 | 1012.4 |